Location: Unspecified
(0.0000°N, 0.0000°E)
Time: 21:38:30
(UTC+00:00)

LEMUR 2 PETERG - Visible Passes

Search period start: 12 January 2025 00:00
Search period end: 22 January 2025 00:00
Orbit: 524 x 533 km, 97.4° (Epoch: 12 January)

Date Brightness Start Highest point End Pass type
(mag) Time Alt. Az. Time Alt. Az. Time Alt. Az.
15 Jan ? 05:40:12 10° SSE 05:43:58 61° ENE 05:47:43 10° N visible
16 Jan ? 05:29:30 10° SSE 05:33:06 39° E 05:36:39 10° N visible
17 Jan ? 05:18:57 10° SE 05:22:11 26° E 05:25:24 10° NNE visible
17 Jan ? 18:49:47 10° WNW 18:50:43 11° WNW 18:51:39 10° W visible
18 Jan ? 05:08:35 10° ESE 05:11:15 18° E 05:13:55 10° NE visible
18 Jan ? 18:37:23 10° NW 18:39:46 16° WNW 18:42:10 10° WSW visible
19 Jan ? 04:58:39 10° ESE 05:00:18 12° ENE 05:01:56 10° NE visible
